Location: Mapua
(41.2500°S, 173.1000°E)
Time: 05:49:58
(UTC+12:00)

Tiangong 2 - Visible Passes

Search period start: 25 September 2018 00:00
Search period end: 05 October 2018 01:00
Orbit: 384 x 394 km, 42.8° (Epoch: 23 September)

Date Brightness Start Highest point End Pass type
(mag) Time Alt. Az. Time Alt. Az. Time Alt. Az.
25 Sep 3.4 04:45:17 14° N 04:45:17 14° N 04:46:06 10° NNE visible
30 Sep 2.7 20:39:21 10° NNW 20:41:44 20° NNE 20:41:44 20° NNE visible
01 Oct 2.1 21:17:01 10° WNW 21:19:17 38° NNW 21:19:17 38° NNW visible
02 Oct 2.0 20:19:09 10° NW 20:22:07 34° NNE 20:24:19 15° E visible
02 Oct 3.7 21:55:36 10° W 21:56:38 19° W 21:56:38 19° W visible
03 Oct 1.0 20:57:25 10° WNW 21:00:39 83° NNE 21:01:31 45° E visible
04 Oct 1.3 19:59:20 10° WNW 20:02:31 56° NNE 20:05:42 10° E visible
04 Oct 2.2 21:36:09 10° W 21:38:36 45° WSW 21:38:36 45° WSW visible
